Year,Month,Day,Hour,Minute,Value (Times are PST for temperature in C)
2012,09,17,00,00,11.20
2012,09,17,00,01,11.20
2012,09,17,00,02,11.20
2012,09,17,00,03,11.20
2012,09,17,00,04,11.20
2012,09,17,00,05,11.20
2012,09,17,00,06,11.20
2012,09,17,00,07,11.20
2012,09,17,00,08,11.20
2012,09,17,00,09,11.10
2012,09,17,00,10,11.10
2012,09,17,00,11,11.10
2012,09,17,00,12,11.10
2012,09,17,00,13,11.10
2012,09,17,00,14,11.10
2012,09,17,00,15,11.10
2012,09,17,00,16,11.10
2012,09,17,00,17,11.10
2012,09,17,00,18,11.10
2012,09,17,00,19,11.20
2012,09,17,00,20,11.20
2012,09,17,00,21,11.20
2012,09,17,00,22,11.20
2012,09,17,00,23,11.20
2012,09,17,00,24,11.20
2012,09,17,00,25,11.20
2012,09,17,00,26,11.20
2012,09,17,00,27,11.20
2012,09,17,00,28,11.20
2012,09,17,00,29,11.20
2012,09,17,00,30,11.20
2012,09,17,00,31,11.30
2012,09,17,00,32,11.30
2012,09,17,00,33,11.20
2012,09,17,00,34,11.20
2012,09,17,00,35,11.20
2012,09,17,00,36,11.20
2012,09,17,00,37,11.20
2012,09,17,00,38,11.20
2012,09,17,00,39,11.20
2012,09,17,00,40,11.20
2012,09,17,00,41,11.20
2012,09,17,00,42,11.20
2012,09,17,00,43,11.20
2012,09,17,00,44,11.20
2012,09,17,00,45,11.20
2012,09,17,00,46,11.20
2012,09,17,00,47,11.20
2012,09,17,00,48,11.20
2012,09,17,00,49,11.30
2012,09,17,00,50,11.30
2012,09,17,00,51,11.30
2012,09,17,00,52,11.30
2012,09,17,00,53,11.30
2012,09,17,00,54,11.40
2012,09,17,00,55,11.40
2012,09,17,00,56,11.40
2012,09,17,00,57,11.40
2012,09,17,00,58,11.40
2012,09,17,00,59,11.40
2012,09,17,01,00,11.40
2012,09,17,01,01,11.40
2012,09,17,01,02,11.40
2012,09,17,01,03,11.40
2012,09,17,01,04,11.40
2012,09,17,01,05,11.40
2012,09,17,01,06,11.40
2012,09,17,01,07,11.40
2012,09,17,01,08,11.40
2012,09,17,01,09,11.40
2012,09,17,01,10,11.40
2012,09,17,01,11,11.30
2012,09,17,01,12,11.30
2012,09,17,01,13,11.30
2012,09,17,01,14,11.30
2012,09,17,01,15,11.30
2012,09,17,01,16,11.20
2012,09,17,01,17,11.20
2012,09,17,01,18,11.20
2012,09,17,01,19,11.20
2012,09,17,01,20,11.10
2012,09,17,01,21,11.10
2012,09,17,01,22,11.10
2012,09,17,01,23,11.10
2012,09,17,01,24,11.10
2012,09,17,01,25,11.10
2012,09,17,01,26,11.10
2012,09,17,01,27,11.10
2012,09,17,01,28,11.10
2012,09,17,01,29,11.10
2012,09,17,01,30,11.10
2012,09,17,01,31,11.10
2012,09,17,01,32,11.10
2012,09,17,01,33,11.10
2012,09,17,01,34,11.10
2012,09,17,01,35,11.10
2012,09,17,01,36,11.10
2012,09,17,01,37,11.10
2012,09,17,01,38,11.10
2012,09,17,01,39,11.10
2012,09,17,01,40,11.10
2012,09,17,01,41,11.10
2012,09,17,01,42,11.10
2012,09,17,01,43,11.10
2012,09,17,01,44,11.10
2012,09,17,01,45,11.10
2012,09,17,01,46,11.10
2012,09,17,01,47,11.10
2012,09,17,01,48,11.10
2012,09,17,01,49,11.10
2012,09,17,01,50,11.10
2012,09,17,01,51,11.10
2012,09,17,01,52,11.20
2012,09,17,01,53,11.20
2012,09,17,01,54,11.20
2012,09,17,01,55,11.30
2012,09,17,01,56,11.40
2012,09,17,01,57,11.40
2012,09,17,01,58,11.40
2012,09,17,01,59,11.40
2012,09,17,02,00,11.40
2012,09,17,02,01,11.40
2012,09,17,02,02,11.40
2012,09,17,02,03,11.40
2012,09,17,02,04,11.40
2012,09,17,02,05,11.40
2012,09,17,02,06,11.40
2012,09,17,02,07,11.40
2012,09,17,02,08,11.40
2012,09,17,02,09,11.40
2012,09,17,02,10,11.40
2012,09,17,02,11,11.30
2012,09,17,02,12,11.30
2012,09,17,02,13,11.30
2012,09,17,02,14,11.30
2012,09,17,02,15,11.30
2012,09,17,02,16,11.30
2012,09,17,02,17,11.30
2012,09,17,02,18,11.30
2012,09,17,02,19,11.30
2012,09,17,02,20,11.30
2012,09,17,02,21,11.30
2012,09,17,02,22,11.30
2012,09,17,02,23,11.30
2012,09,17,02,24,11.30
2012,09,17,02,25,11.40
2012,09,17,02,26,11.40
2012,09,17,02,27,11.40
2012,09,17,02,28,11.40
2012,09,17,02,29,11.60
2012,09,17,02,30,11.80
2012,09,17,02,31,12.00
2012,09,17,02,32,12.30
2012,09,17,02,33,12.50
2012,09,17,02,34,12.70
2012,09,17,02,35,12.90
2012,09,17,02,36,13.00
2012,09,17,02,37,13.30
2012,09,17,02,38,13.50
2012,09,17,02,39,13.60
2012,09,17,02,40,13.80
2012,09,17,02,41,13.90
2012,09,17,02,42,14.00
2012,09,17,02,43,14.20
2012,09,17,02,44,14.20
2012,09,17,02,45,14.30
2012,09,17,02,46,14.40
2012,09,17,02,47,14.40
2012,09,17,02,48,14.50
2012,09,17,02,49,14.50
2012,09,17,02,50,14.60
2012,09,17,02,51,14.60
2012,09,17,02,52,14.60
2012,09,17,02,53,14.50
2012,09,17,02,54,14.40
2012,09,17,02,55,14.30
2012,09,17,02,56,14.20
2012,09,17,02,57,14.10
2012,09,17,02,58,13.90
2012,09,17,02,59,13.80
2012,09,17,03,00,13.70
2012,09,17,03,01,13.70
2012,09,17,03,02,13.70
2012,09,17,03,03,13.70
2012,09,17,03,04,13.60
2012,09,17,03,05,13.60
2012,09,17,03,06,13.50
2012,09,17,03,07,13.40
2012,09,17,03,08,13.30
2012,09,17,03,09,13.20
2012,09,17,03,10,13.00
2012,09,17,03,11,12.80
2012,09,17,03,12,12.70
2012,09,17,03,13,12.60
2012,09,17,03,14,12.40
2012,09,17,03,15,12.30
2012,09,17,03,16,12.30
2012,09,17,03,17,12.20
2012,09,17,03,18,12.20
2012,09,17,03,19,12.20
2012,09,17,03,20,12.10
2012,09,17,03,21,12.00
2012,09,17,03,22,12.00
2012,09,17,03,23,12.00
2012,09,17,03,24,11.90
2012,09,17,03,25,11.90
2012,09,17,03,26,11.80
2012,09,17,03,27,11.80
2012,09,17,03,28,11.80
2012,09,17,03,29,11.80
2012,09,17,03,30,11.70
2012,09,17,03,31,11.70
2012,09,17,03,32,11.70
2012,09,17,03,33,11.60
2012,09,17,03,34,11.60
2012,09,17,03,35,11.60
2012,09,17,03,36,11.60
2012,09,17,03,37,11.60
2012,09,17,03,38,11.50
2012,09,17,03,39,11.40
2012,09,17,03,40,11.40
2012,09,17,03,41,11.40
2012,09,17,03,42,11.40
2012,09,17,03,43,11.40
2012,09,17,03,44,11.40
2012,09,17,03,45,11.40
2012,09,17,03,46,11.30
2012,09,17,03,47,11.30
2012,09,17,03,48,11.30
2012,09,17,03,49,11.30
2012,09,17,03,50,11.20
2012,09,17,03,51,11.20
2012,09,17,03,52,11.10
2012,09,17,03,53,11.10
2012,09,17,03,54,11.10
2012,09,17,03,55,11.10
2012,09,17,03,56,11.10
2012,09,17,03,57,11.10
2012,09,17,03,58,11.10
2012,09,17,03,59,11.10
2012,09,17,04,00,11.10
2012,09,17,04,01,11.10
2012,09,17,04,02,11.10
2012,09,17,04,03,11.10
2012,09,17,04,04,11.00
2012,09,17,04,05,10.90
2012,09,17,04,06,10.90
2012,09,17,04,07,10.90
2012,09,17,04,08,10.90
2012,09,17,04,09,10.90
2012,09,17,04,10,10.90
2012,09,17,04,11,10.90
2012,09,17,04,12,10.90
2012,09,17,04,13,10.80
2012,09,17,04,14,10.80
2012,09,17,04,15,10.80
2012,09,17,04,16,10.80
2012,09,17,04,17,10.80
2012,09,17,04,18,10.80
2012,09,17,04,19,10.80
2012,09,17,04,20,10.70
2012,09,17,04,21,10.70
2012,09,17,04,22,10.70
2012,09,17,04,23,10.60
2012,09,17,04,24,10.60
2012,09,17,04,25,10.60
2012,09,17,04,26,10.60
2012,09,17,04,27,10.60
2012,09,17,04,28,10.60
2012,09,17,04,29,10.60
2012,09,17,04,30,10.60
2012,09,17,04,31,10.60
2012,09,17,04,32,10.60
2012,09,17,04,33,10.60
2012,09,17,04,34,10.60
2012,09,17,04,35,10.50
2012,09,17,04,36,10.40
2012,09,17,04,37,10.40
2012,09,17,04,38,10.40
2012,09,17,04,39,10.40
2012,09,17,04,40,10.40
2012,09,17,04,41,10.40
2012,09,17,04,42,10.40
2012,09,17,04,43,10.40
2012,09,17,04,44,10.40
2012,09,17,04,45,10.40
2012,09,17,04,46,10.40
2012,09,17,04,47,10.40
2012,09,17,04,48,10.40
2012,09,17,04,49,10.40
2012,09,17,04,50,10.40
2012,09,17,04,51,10.40
2012,09,17,04,52,10.40
2012,09,17,04,53,10.40
2012,09,17,04,54,10.40
2012,09,17,04,55,10.40
2012,09,17,04,56,10.40
2012,09,17,04,57,10.40
2012,09,17,04,58,10.40
2012,09,17,04,59,10.40
2012,09,17,05,00,10.40
2012,09,17,05,01,10.40
2012,09,17,05,02,10.40
2012,09,17,05,03,10.40
2012,09,17,05,04,10.40
2012,09,17,05,05,10.40
2012,09,17,05,06,10.40
2012,09,17,05,07,10.40
2012,09,17,05,08,10.40
2012,09,17,05,09,10.40
2012,09,17,05,10,10.50
2012,09,17,05,11,10.60
2012,09,17,05,12,10.60
2012,09,17,05,13,10.60
2012,09,17,05,14,10.70
2012,09,17,05,15,10.70
2012,09,17,05,16,10.80
2012,09,17,05,17,10.80
2012,09,17,05,18,10.90
2012,09,17,05,19,10.90
2012,09,17,05,20,11.00
2012,09,17,05,21,11.10
2012,09,17,05,22,11.10
2012,09,17,05,23,11.20
2012,09,17,05,24,11.30
2012,09,17,05,25,11.30
2012,09,17,05,26,11.40
2012,09,17,05,27,11.40
2012,09,17,05,28,11.40
2012,09,17,05,29,11.40
2012,09,17,05,30,11.40
2012,09,17,05,31,11.40
2012,09,17,05,32,11.30
2012,09,17,05,33,11.30
2012,09,17,05,34,11.20
2012,09,17,05,35,11.10
2012,09,17,05,36,11.10
2012,09,17,05,37,11.00
2012,09,17,05,38,10.90
2012,09,17,05,39,10.90
2012,09,17,05,40,10.90
2012,09,17,05,41,10.90
2012,09,17,05,42,10.90
2012,09,17,05,43,10.90
2012,09,17,05,44,10.90
2012,09,17,05,45,10.90
2012,09,17,05,46,11.00
2012,09,17,05,47,11.10
2012,09,17,05,48,11.30
2012,09,17,05,49,11.40
2012,09,17,05,50,11.50
2012,09,17,05,51,11.70
2012,09,17,05,52,11.80
2012,09,17,05,53,12.00
2012,09,17,05,54,12.10
2012,09,17,05,55,12.20
2012,09,17,05,56,12.30
2012,09,17,05,57,12.40
2012,09,17,05,58,12.40
2012,09,17,05,59,12.50
2012,09,17,06,00,12.60
2012,09,17,06,01,12.60
2012,09,17,06,02,12.60
2012,09,17,06,03,12.70
2012,09,17,06,04,12.70
2012,09,17,06,05,12.80
2012,09,17,06,06,12.80
2012,09,17,06,07,12.80
2012,09,17,06,08,12.90
2012,09,17,06,09,13.00
2012,09,17,06,10,13.10
2012,09,17,06,11,13.20
2012,09,17,06,12,13.30
2012,09,17,06,13,13.30
2012,09,17,06,14,13.30
2012,09,17,06,15,13.30
2012,09,17,06,16,13.30
2012,09,17,06,17,13.40
2012,09,17,06,18,13.40
2012,09,17,06,19,13.50
2012,09,17,06,20,13.50
2012,09,17,06,21,13.50
2012,09,17,06,22,13.60
2012,09,17,06,23,13.60
2012,09,17,06,24,13.70
2012,09,17,06,25,13.70
2012,09,17,06,26,13.80
2012,09,17,06,27,13.80
2012,09,17,06,28,13.90
2012,09,17,06,29,13.90
2012,09,17,06,30,14.00
2012,09,17,06,31,14.00
2012,09,17,06,32,14.10
2012,09,17,06,33,14.20
2012,09,17,06,34,14.20
2012,09,17,06,35,14.20
2012,09,17,06,36,14.20
2012,09,17,06,37,14.20
2012,09,17,06,38,14.20
2012,09,17,06,39,14.30
2012,09,17,06,40,14.30
2012,09,17,06,41,14.30
2012,09,17,06,42,14.30
2012,09,17,06,43,14.30
2012,09,17,06,44,14.40
2012,09,17,06,45,14.40
2012,09,17,06,46,14.40
2012,09,17,06,47,14.40
2012,09,17,06,48,14.40
2012,09,17,06,49,14.30
2012,09,17,06,50,14.30
2012,09,17,06,51,14.30
2012,09,17,06,52,14.20
2012,09,17,06,53,14.20
2012,09,17,06,54,14.20
2012,09,17,06,55,14.20
2012,09,17,06,56,14.20
2012,09,17,06,57,14.20
2012,09,17,06,58,14.10
2012,09,17,06,59,14.10
2012,09,17,07,00,14.10
2012,09,17,07,01,14.10
2012,09,17,07,02,14.00
2012,09,17,07,03,14.00
2012,09,17,07,04,14.00
2012,09,17,07,05,14.00
2012,09,17,07,06,14.00
2012,09,17,07,07,14.00
2012,09,17,07,08,14.00
2012,09,17,07,09,14.10
2012,09,17,07,10,14.10
2012,09,17,07,11,14.10
2012,09,17,07,12,14.10
2012,09,17,07,13,14.10
2012,09,17,07,14,14.20
2012,09,17,07,15,14.20
2012,09,17,07,16,14.20
2012,09,17,07,17,14.20
2012,09,17,07,18,14.20
2012,09,17,07,19,14.20
2012,09,17,07,20,14.20
2012,09,17,07,21,14.20
2012,09,17,07,22,14.20
2012,09,17,07,23,14.30
2012,09,17,07,24,14.40
2012,09,17,07,25,14.40
2012,09,17,07,26,14.50
2012,09,17,07,27,14.50
2012,09,17,07,28,14.50
2012,09,17,07,29,14.60
2012,09,17,07,30,14.60
2012,09,17,07,31,14.70
2012,09,17,07,32,14.70
2012,09,17,07,33,14.70
2012,09,17,07,34,14.70
2012,09,17,07,35,14.80
2012,09,17,07,36,14.80
2012,09,17,07,37,14.80
2012,09,17,07,38,14.60
2012,09,17,07,39,14.40
2012,09,17,07,40,14.20
2012,09,17,07,41,14.00
2012,09,17,07,42,13.90
2012,09,17,07,43,13.80
2012,09,17,07,44,13.70
2012,09,17,07,45,13.60
2012,09,17,07,46,13.60
2012,09,17,07,47,13.60
2012,09,17,07,48,13.50
2012,09,17,07,49,13.50
2012,09,17,07,50,13.40
2012,09,17,07,51,13.40
2012,09,17,07,52,13.30
2012,09,17,07,53,13.30
2012,09,17,07,54,13.30
2012,09,17,07,55,13.30
2012,09,17,07,56,13.40
2012,09,17,07,57,13.50
2012,09,17,07,58,13.50
2012,09,17,07,59,13.60
2012,09,17,08,00,13.70
2012,09,17,08,01,13.70
2012,09,17,08,02,13.80
2012,09,17,08,03,13.90
2012,09,17,08,04,13.90
2012,09,17,08,05,13.90
2012,09,17,08,06,14.00
2012,09,17,08,07,14.00
2012,09,17,08,08,14.00
2012,09,17,08,09,14.10
2012,09,17,08,10,14.10
2012,09,17,08,11,14.20
2012,09,17,08,12,14.20
2012,09,17,08,13,14.30
2012,09,17,08,14,14.40
2012,09,17,08,15,14.50
2012,09,17,08,16,14.50
2012,09,17,08,17,14.60
2012,09,17,08,18,14.60
2012,09,17,08,19,14.60
2012,09,17,08,20,14.60
2012,09,17,08,21,14.60
2012,09,17,08,22,14.60
2012,09,17,08,23,14.60
2012,09,17,08,24,14.60
2012,09,17,08,25,14.70
2012,09,17,08,26,14.70
2012,09,17,08,27,14.80
2012,09,17,08,28,14.80
2012,09,17,08,29,14.90
2012,09,17,08,30,15.00
2012,09,17,08,31,15.20
2012,09,17,08,32,15.30
2012,09,17,08,33,15.40
2012,09,17,08,34,15.50
2012,09,17,08,35,15.50
2012,09,17,08,36,15.60
2012,09,17,08,37,15.60
2012,09,17,08,38,15.60
2012,09,17,08,39,15.70
2012,09,17,08,40,15.70
2012,09,17,08,41,15.80
2012,09,17,08,42,15.80
2012,09,17,08,43,15.90
2012,09,17,08,44,15.90
2012,09,17,08,45,15.90
2012,09,17,08,46,16.00
2012,09,17,08,47,16.10
2012,09,17,08,48,16.10
2012,09,17,08,49,16.10
2012,09,17,08,50,16.20
2012,09,17,08,51,16.30
2012,09,17,08,52,16.40
2012,09,17,08,53,16.40
2012,09,17,08,54,16.50
2012,09,17,08,55,16.70
2012,09,17,08,56,16.70
2012,09,17,08,57,16.80
2012,09,17,08,58,16.90
2012,09,17,08,59,17.00
2012,09,17,09,00,17.00
2012,09,17,09,01,17.10
2012,09,17,09,02,17.20
2012,09,17,09,03,17.20
2012,09,17,09,04,17.30
2012,09,17,09,05,17.30
2012,09,17,09,06,17.40
2012,09,17,09,07,17.50
2012,09,17,09,08,17.60
2012,09,17,09,09,17.70
2012,09,17,09,10,17.70
2012,09,17,09,11,17.80
2012,09,17,09,12,17.80
2012,09,17,09,13,17.90
2012,09,17,09,14,17.90
2012,09,17,09,15,18.00
2012,09,17,09,16,18.10
2012,09,17,09,17,18.10
2012,09,17,09,18,18.20
2012,09,17,09,19,18.20
2012,09,17,09,20,18.20
2012,09,17,09,21,18.20
2012,09,17,09,22,18.20
2012,09,17,09,23,18.30
2012,09,17,09,24,18.30
2012,09,17,09,25,18.30
2012,09,17,09,26,18.40
2012,09,17,09,27,18.40
2012,09,17,09,28,18.40
2012,09,17,09,29,18.50
2012,09,17,09,30,18.50
2012,09,17,09,31,18.50
2012,09,17,09,32,18.60
2012,09,17,09,33,18.60
2012,09,17,09,34,18.70
2012,09,17,09,35,18.70
2012,09,17,09,36,18.90
2012,09,17,09,37,18.90
2012,09,17,09,38,18.90
2012,09,17,09,39,19.00
2012,09,17,09,40,19.10
2012,09,17,09,41,19.10
2012,09,17,09,42,19.20
2012,09,17,09,43,19.30
2012,09,17,09,44,19.40
2012,09,17,09,45,19.50
2012,09,17,09,46,19.50
2012,09,17,09,47,19.60
2012,09,17,09,48,19.60
2012,09,17,09,49,19.60
2012,09,17,09,50,19.60
2012,09,17,09,51,19.60
2012,09,17,09,52,19.60
2012,09,17,09,53,19.60
2012,09,17,09,54,19.50
2012,09,17,09,55,19.50
2012,09,17,09,56,19.50
2012,09,17,09,57,19.40
2012,09,17,09,58,19.40
2012,09,17,09,59,19.30
2012,09,17,10,00,19.30
2012,09,17,10,01,19.30
2012,09,17,10,02,19.30
2012,09,17,10,03,19.40
2012,09,17,10,04,19.40
2012,09,17,10,05,19.40
2012,09,17,10,06,19.50
2012,09,17,10,07,19.60
2012,09,17,10,08,19.70
2012,09,17,10,09,19.90
2012,09,17,10,10,20.00
2012,09,17,10,11,20.10
2012,09,17,10,12,20.10
2012,09,17,10,13,20.20
2012,09,17,10,14,20.10
2012,09,17,10,15,20.10
2012,09,17,10,16,20.10
2012,09,17,10,17,20.10
2012,09,17,10,18,20.20
2012,09,17,10,19,20.20
2012,09,17,10,20,20.20
2012,09,17,10,21,20.20
2012,09,17,10,22,20.20
2012,09,17,10,23,20.10
2012,09,17,10,24,20.00
2012,09,17,10,25,19.90
2012,09,17,10,26,19.90
2012,09,17,10,27,19.80
2012,09,17,10,28,19.80
2012,09,17,10,29,19.90
2012,09,17,10,30,19.90
2012,09,17,10,31,19.90
2012,09,17,10,32,19.90
2012,09,17,10,33,20.00
2012,09,17,10,34,20.10
2012,09,17,10,35,20.20
2012,09,17,10,36,20.20
2012,09,17,10,37,20.20
2012,09,17,10,38,20.20
2012,09,17,10,39,20.20
2012,09,17,10,40,20.20
2012,09,17,10,41,20.20
2012,09,17,10,42,20.20
2012,09,17,10,43,20.10
2012,09,17,10,44,20.10
2012,09,17,10,45,20.10
2012,09,17,10,46,20.10
2012,09,17,10,47,20.20
2012,09,17,10,48,20.20
2012,09,17,10,49,20.20
2012,09,17,10,50,20.20
2012,09,17,10,51,20.10
2012,09,17,10,52,20.10
2012,09,17,10,53,20.10
2012,09,17,10,54,20.10
2012,09,17,10,55,20.10
2012,09,17,10,56,20.10
2012,09,17,10,57,20.00
2012,09,17,10,58,19.90
2012,09,17,10,59,19.90
2012,09,17,11,00,20.00
2012,09,17,11,01,20.10
2012,09,17,11,02,20.10
2012,09,17,11,03,20.10
2012,09,17,11,04,20.10
2012,09,17,11,05,20.10
2012,09,17,11,06,20.00
2012,09,17,11,07,19.90
2012,09,17,11,08,19.90
2012,09,17,11,09,19.80
2012,09,17,11,10,19.70
2012,09,17,11,11,19.60
2012,09,17,11,12,19.60
2012,09,17,11,13,19.60
2012,09,17,11,14,19.50
2012,09,17,11,15,19.40
2012,09,17,11,16,19.50
2012,09,17,11,17,19.50
2012,09,17,11,18,19.50
2012,09,17,11,19,19.50
2012,09,17,11,20,19.60
2012,09,17,11,21,19.60
2012,09,17,11,22,19.60
2012,09,17,11,23,19.50
2012,09,17,11,24,19.40
2012,09,17,11,25,19.40
2012,09,17,11,26,19.30
2012,09,17,11,27,19.20
2012,09,17,11,28,19.20
2012,09,17,11,29,19.20
2012,09,17,11,30,19.20
2012,09,17,11,31,19.30
2012,09,17,11,32,19.40
2012,09,17,11,33,19.60
2012,09,17,11,34,19.70
2012,09,17,11,35,19.80
2012,09,17,11,36,19.90
2012,09,17,11,37,19.90
2012,09,17,11,38,20.00
2012,09,17,11,39,20.20
2012,09,17,11,40,20.20
2012,09,17,11,41,20.20
2012,09,17,11,42,20.20
2012,09,17,11,43,20.20
2012,09,17,11,44,20.20
2012,09,17,11,45,20.20
2012,09,17,11,46,20.30
2012,09,17,11,47,20.20
2012,09,17,11,48,20.20
2012,09,17,11,49,20.20
2012,09,17,11,50,20.20
2012,09,17,11,51,20.20
2012,09,17,11,52,20.20
2012,09,17,11,53,20.10
2012,09,17,11,54,20.00
2012,09,17,11,55,19.90
2012,09,17,11,56,19.80
2012,09,17,11,57,19.70
2012,09,17,11,58,19.70
2012,09,17,11,59,19.80
2012,09,17,12,00,19.80
2012,09,17,12,01,19.90
2012,09,17,12,02,19.90
2012,09,17,12,03,19.90
2012,09,17,12,04,19.90
2012,09,17,12,05,19.70
2012,09,17,12,06,19.60
2012,09,17,12,07,19.40
2012,09,17,12,08,19.10
2012,09,17,12,09,19.10
2012,09,17,12,10,18.90
2012,09,17,12,11,18.90
2012,09,17,12,12,18.90
2012,09,17,12,13,18.90
2012,09,17,12,14,18.80
2012,09,17,12,15,18.90
2012,09,17,12,16,18.90
2012,09,17,12,17,18.90
2012,09,17,12,18,18.70
2012,09,17,12,19,18.60
2012,09,17,12,20,18.50
2012,09,17,12,21,18.30
2012,09,17,12,22,18.20
2012,09,17,12,23,18.10
2012,09,17,12,24,18.10
2012,09,17,12,25,18.00
2012,09,17,12,26,17.90
2012,09,17,12,27,17.90
2012,09,17,12,28,17.90
2012,09,17,12,29,17.90
2012,09,17,12,30,18.00
2012,09,17,12,31,18.20
2012,09,17,12,32,18.20
2012,09,17,12,33,18.30
2012,09,17,12,34,18.50
2012,09,17,12,35,18.60
2012,09,17,12,36,18.70
2012,09,17,12,37,18.80
2012,09,17,12,38,18.90
2012,09,17,12,39,19.10
2012,09,17,12,40,19.30
2012,09,17,12,41,19.40
2012,09,17,12,42,19.60
2012,09,17,12,43,19.70
2012,09,17,12,44,19.80
2012,09,17,12,45,19.90
2012,09,17,12,46,20.00
2012,09,17,12,47,20.10
2012,09,17,12,48,20.20
2012,09,17,12,49,20.40
2012,09,17,12,50,20.50
2012,09,17,12,51,20.60
2012,09,17,12,52,20.70
2012,09,17,12,53,20.80
2012,09,17,12,54,20.80
2012,09,17,12,55,20.70
2012,09,17,12,56,20.50
2012,09,17,12,57,20.30
2012,09,17,12,58,20.10
2012,09,17,12,59,19.80
2012,09,17,13,00,19.70
2012,09,17,13,01,19.60
2012,09,17,13,02,19.60
2012,09,17,13,03,19.50
2012,09,17,13,04,19.60
2012,09,17,13,05,19.70
2012,09,17,13,06,19.80
2012,09,17,13,07,19.90
2012,09,17,13,08,20.00
2012,09,17,13,09,20.10
2012,09,17,13,10,20.10
2012,09,17,13,11,20.20
2012,09,17,13,12,20.20
2012,09,17,13,13,20.30
2012,09,17,13,14,20.30
2012,09,17,13,15,20.40
2012,09,17,13,16,20.50
2012,09,17,13,17,20.60
2012,09,17,13,18,20.70
2012,09,17,13,19,20.80
2012,09,17,13,20,20.90
2012,09,17,13,21,21.00
2012,09,17,13,22,21.10
2012,09,17,13,23,21.30
2012,09,17,13,24,21.40
2012,09,17,13,25,21.40
2012,09,17,13,26,21.40
2012,09,17,13,27,21.20
2012,09,17,13,28,21.10
2012,09,17,13,29,20.90
2012,09,17,13,30,20.80
2012,09,17,13,31,20.80
2012,09,17,13,32,20.80
2012,09,17,13,33,20.80
2012,09,17,13,34,20.90
2012,09,17,13,35,21.00
2012,09,17,13,36,21.10
2012,09,17,13,37,21.10
2012,09,17,13,38,21.20
2012,09,17,13,39,21.30
2012,09,17,13,40,21.50
2012,09,17,13,41,21.60
2012,09,17,13,42,21.70
2012,09,17,13,43,21.80
2012,09,17,13,44,21.90
2012,09,17,13,45,22.10
2012,09,17,13,46,22.20
2012,09,17,13,47,22.30
2012,09,17,13,48,22.40
2012,09,17,13,49,22.50
2012,09,17,13,50,22.50
2012,09,17,13,51,22.60
2012,09,17,13,52,22.70
2012,09,17,13,53,22.80
2012,09,17,13,54,22.80
2012,09,17,13,55,22.70
2012,09,17,13,56,22.60
2012,09,17,13,57,22.60
2012,09,17,13,58,22.60
2012,09,17,13,59,22.60
2012,09,17,14,00,22.60
2012,09,17,14,01,22.70
2012,09,17,14,02,22.60
2012,09,17,14,03,22.40
2012,09,17,14,04,22.30
2012,09,17,14,05,22.20
2012,09,17,14,06,22.00
2012,09,17,14,07,21.80
2012,09,17,14,08,21.60
2012,09,17,14,09,21.40
2012,09,17,14,10,21.30
2012,09,17,14,11,20.90
2012,09,17,14,12,20.70
2012,09,17,14,13,20.50
2012,09,17,14,14,20.20
2012,09,17,14,15,20.00
2012,09,17,14,16,19.90
2012,09,17,14,17,19.90
2012,09,17,14,18,19.90
2012,09,17,14,19,20.10
2012,09,17,14,20,20.20
2012,09,17,14,21,20.40
2012,09,17,14,22,20.50
2012,09,17,14,23,20.60
2012,09,17,14,24,20.70
2012,09,17,14,25,20.90
2012,09,17,14,26,21.10
2012,09,17,14,27,21.20
2012,09,17,14,28,21.30
2012,09,17,14,29,21.30
2012,09,17,14,30,21.40
2012,09,17,14,31,21.50
2012,09,17,14,32,21.60
2012,09,17,14,33,21.60
2012,09,17,14,34,21.60
2012,09,17,14,35,21.60
2012,09,17,14,36,21.60
2012,09,17,14,37,21.60
2012,09,17,14,38,21.60
2012,09,17,14,39,21.60
2012,09,17,14,40,21.60
2012,09,17,14,41,21.60
2012,09,17,14,42,21.60
2012,09,17,14,43,21.50
2012,09,17,14,44,21.40
2012,09,17,14,45,21.40
2012,09,17,14,46,21.40
2012,09,17,14,47,21.30
2012,09,17,14,48,21.30
2012,09,17,14,49,21.40
2012,09,17,14,50,21.40
2012,09,17,14,51,21.50
2012,09,17,14,52,21.70
2012,09,17,14,53,21.90
2012,09,17,14,54,21.90
2012,09,17,14,55,21.90
2012,09,17,14,56,21.80
2012,09,17,14,57,21.60
2012,09,17,14,58,21.50
2012,09,17,14,59,21.50
2012,09,17,15,00,21.50
2012,09,17,15,01,21.40
2012,09,17,15,02,21.30
2012,09,17,15,03,21.30
2012,09,17,15,04,21.30
2012,09,17,15,05,21.40
2012,09,17,15,06,21.40
2012,09,17,15,07,21.50
2012,09,17,15,08,21.60
2012,09,17,15,09,21.70
2012,09,17,15,10,21.80
2012,09,17,15,11,21.90
2012,09,17,15,12,22.10
2012,09,17,15,13,22.30
2012,09,17,15,14,22.50
2012,09,17,15,15,22.60
2012,09,17,15,16,22.80
2012,09,17,15,17,22.90
2012,09,17,15,18,22.90
2012,09,17,15,19,22.90
2012,09,17,15,20,22.90
2012,09,17,15,21,22.90
2012,09,17,15,22,22.80
2012,09,17,15,23,22.60
2012,09,17,15,24,22.40
2012,09,17,15,25,22.20
2012,09,17,15,26,22.10
2012,09,17,15,27,22.00
2012,09,17,15,28,21.90
2012,09,17,15,29,21.90
2012,09,17,15,30,21.90
2012,09,17,15,31,22.00
2012,09,17,15,32,22.10
2012,09,17,15,33,22.20
2012,09,17,15,34,22.20
2012,09,17,15,35,22.20
2012,09,17,15,36,22.20
2012,09,17,15,37,22.20
2012,09,17,15,38,22.20
2012,09,17,15,39,22.10
2012,09,17,15,40,22.20
2012,09,17,15,41,22.20
2012,09,17,15,42,22.20
2012,09,17,15,43,22.30
2012,09,17,15,44,22.30
2012,09,17,15,45,22.40
2012,09,17,15,46,22.50
2012,09,17,15,47,22.40
2012,09,17,15,48,22.40
2012,09,17,15,49,22.40
2012,09,17,15,50,22.50
2012,09,17,15,51,22.50
2012,09,17,15,52,22.50
2012,09,17,15,53,22.50
2012,09,17,15,54,22.50
2012,09,17,15,55,22.30
2012,09,17,15,56,22.20
2012,09,17,15,57,22.20
2012,09,17,15,58,22.10
2012,09,17,15,59,22.10
2012,09,17,16,00,22.10
2012,09,17,16,01,22.20
2012,09,17,16,02,22.20
2012,09,17,16,03,22.30
2012,09,17,16,04,22.30
2012,09,17,16,05,22.30
2012,09,17,16,06,22.30
2012,09,17,16,07,22.30
2012,09,17,16,08,22.40
2012,09,17,16,09,22.30
2012,09,17,16,10,22.30
2012,09,17,16,11,22.10
2012,09,17,16,12,21.80
2012,09,17,16,13,21.50
2012,09,17,16,14,21.40
2012,09,17,16,15,21.30
2012,09,17,16,16,21.10
2012,09,17,16,17,20.90
2012,09,17,16,18,20.80
2012,09,17,16,19,20.80
2012,09,17,16,20,20.60
2012,09,17,16,21,20.50
2012,09,17,16,22,20.40
2012,09,17,16,23,20.30
2012,09,17,16,24,20.30
2012,09,17,16,25,20.20
2012,09,17,16,26,20.10
2012,09,17,16,27,19.90
2012,09,17,16,28,19.90
2012,09,17,16,29,19.80
2012,09,17,16,30,19.70
2012,09,17,16,31,19.70
2012,09,17,16,32,19.80
2012,09,17,16,33,19.80
2012,09,17,16,34,19.80
2012,09,17,16,35,19.80
2012,09,17,16,36,19.80
2012,09,17,16,37,19.90
2012,09,17,16,38,19.90
2012,09,17,16,39,19.90
2012,09,17,16,40,19.80
2012,09,17,16,41,19.70
2012,09,17,16,42,19.70
2012,09,17,16,43,19.60
2012,09,17,16,44,19.60
2012,09,17,16,45,19.50
2012,09,17,16,46,19.40
2012,09,17,16,47,19.40
2012,09,17,16,48,19.30
2012,09,17,16,49,19.40
2012,09,17,16,50,19.40
2012,09,17,16,51,19.50
2012,09,17,16,52,19.50
2012,09,17,16,53,19.40
2012,09,17,16,54,19.40
2012,09,17,16,55,19.40
2012,09,17,16,56,19.20
2012,09,17,16,57,19.10
2012,09,17,16,58,19.00
2012,09,17,16,59,18.90
2012,09,17,17,00,18.90
2012,09,17,17,01,18.90
2012,09,17,17,02,18.90
2012,09,17,17,03,18.90
2012,09,17,17,04,18.80
2012,09,17,17,05,18.60
2012,09,17,17,06,18.60
2012,09,17,17,07,18.50
2012,09,17,17,08,18.50
2012,09,17,17,09,18.50
2012,09,17,17,10,18.50
2012,09,17,17,11,18.50
2012,09,17,17,12,18.50
2012,09,17,17,13,18.60
2012,09,17,17,14,18.70
2012,09,17,17,15,18.90
2012,09,17,17,16,18.90
2012,09,17,17,17,19.10
2012,09,17,17,18,19.10
2012,09,17,17,19,19.10